OPS 4682 DEB, 38401

Orbit data source: Space-Track

OPS 4682 DEB, 38401 is space debris in LEO originally from a launch on Sat, 03 Apr 1965 UTC launched from the Air Force Western Test Range (AFWTR). Debris objects in space refer to the collection of defunct objects orbiting the Earth. Examples of debris include non-operational satellites, rocket bodies, and fragments generated from explosions, collisions, or faulty payload assembly.

Loading next visibility...
Identifier
38401, 1965-027DE
Orbit
LEO
Country
Flag of USUS
Related business
Manufacturer
Unknown
Mission
Spacecraft
Bus & Motor
Unknown
Mass
Unknown
Launch date (UTC)
1965-04-03 (61 years ago)
Launch vehicle
Unknown
Launch site
Air Force Western Test Range (AFWTR)
Object type
Payload
Rocket body
Debris
Shape & HBR
Unknown shape, 0.1 m
Radar Cross Section
Small (<0.1 m²)

Expand to show TLE details & history
Last TLE update: 1 day ago

TLE from 1 day ago
0 OPS 4682 DEB
1 38401U 65027DE  25340.04171090  .00000265  00000-0  91572-3 0  9992
2 38401  90.2392   4.3101 0031019 338.3563  21.6243 12.95235900637377
Epoch: 2025-12-06T01:00Z
TLE epoch observation values (Epoch: 2025-12-06T01:00:03.821Z)
Latitude
-0.00007°
Longitude
-85.78096°
Altitude
1,261.607 km
Speed
7.235 km/s
True Right ascension
00h 17m 14s
True Declination
0° 00' 00"
Sunlit
Object was in daylight at epoch
Visualization orbit readout
Latitude
Unknown
Longitude
Unknown
Altitude
Unknown
Speed
Unknown
Apparent Right ascension
Unknown
Apparent Declination
Unknown
Sunlit
N/A
Visualization observer readout
Local Sidereal Time
03:29:44
Azimuth
Unknown
Elevation
Unknown
Doppler factor
Unknown
Orbital elements
Apogee altitude
1,301.692 km
Perigee altitude
1,254.195 km
Semi-major axis
7,656.081 km
Eccentricity
0.0031
Inclination
90.2392°
RAAN
4.3101°
Arg. of periapsis
338.3563°
True anomaly
21.75576°
Mean anomaly
21.6243°
Eccentric anomaly
21.68998°
Mean motion
3.23991 °/min
Orbital period
111.11 mins
BSTAR
0.00091572
Loading maneuver chart data...
Computing Atmospheric mass density...
Loading historical data...
Loading historical data...
Loading historical data...
Loading historical data...
Loading historical data...
Loading historical data...
Loading historical data...

Documentation

Showing up to 5 results
|